Regional Weather Roundup
Issued by NWS

Home | Current Version | Previous Version | Graphics & Text | Print | Product List | Glossary On
Versions: 1 2 3 4 5 6 7 8 9 10 11 12 13 14 15 16 17 18 19 20 21 22 23 24 25 26 27 28 29 30 31 32 33 34 35 36 37 38 39 40 41 42 43 44 45 46 47 48 49 50
000
ASUS43 KDMX 211706
RWRIA

WEATHER ROUNDUP FOR IOWA
NATIONAL WEATHER SERVICE DES MOINES IA
1200 PM CDT THU SEP 21 2017

NOTE: "FAIR" INDICATES FEW OR NO CLOUDS BELOW 12,000 FEET WITH NO
SIGNIFICANT WEATHER AND/OR OBSTRUCTIONS TO VISIBILITY.

* - THESE STATIONS ARE NOT NWS STATIONS...THUS NOT UNDER NWS
QUALITY CONTROL.  THEY ALSO DO NOT REPORT WEATHER SUCH
AS PRECIPITATION OR FOG.

IAZ001>003-012>014-020>022-031>034-043>046-211800-
   NORTHWEST IOWA

CITY           SKY/WX    TMP DP  RH WIND       PRES   REMARKS
CARROLL *      CLOUDY    77  72  83 SE20G31   29.88F
CHEROKEE *     SUNNY     81  72  74 SE13      29.83  HX  85
DENISON *      PTSUNNY   81  73  78 SE18G25   29.85  HX  85
LE MARS *      MOSUNNY   82  72  69 S14G22    29.80F HX  87
ORANGE CITY *  SUNNY     81  72  74 S16G23    29.82F HX  84
SHELDON *      SUNNY     79  68  69 SE12G21   29.82F HX  81
SIOUX CITY     PTSUNNY   80  71  74 SE16G23   29.80F HX  84
SPENCER        SUNNY     73  66  78 SE15      29.87F
STORM LAKE *   SUNNY     81  72  74 S17       29.85F HX  84
$$

IAZ055>058-069>071-079>083-090>094-211800-
   SOUTHWEST IOWA

CITY           SKY/WX    TMP DP  RH WIND       PRES   REMARKS
ATLANTIC *     CLOUDY    79  72  78 SE15G22   29.89  HX  82
AUDUBON *      CLOUDY    77  72  83 SE16G25   29.90F
CLARINDA *     PTSUNNY   84  73  70 SE13G20   29.90F HX  91
COUNCIL BLFS * MOSUNNY   84  75  74 SE18G28   29.84F HX  92
CRESTON *      CLOUDY    75  68  78 SE23G32   29.94F
HARLAN  *      PTSUNNY   81  73  78 SE17G28   29.89F HX  85
LAMONI         MOSUNNY   76  68  76 SE9G21    29.95F
RED OAK *      MOSUNNY   84  73  70 SE14G21   29.87S HX  91
SHENANDOAH *   MOSUNNY   86  73  66 SE13G20   29.86S HX  93
$$

IAZ047>049-059>061-072>074-084-211800-
   CENTRAL IOWA

CITY           SKY/WX    TMP DP  RH WIND       PRES   REMARKS
AMES           PTSUNNY   82  71  69 S16G22    29.92F HX  86
ANKENY *       CLOUDY    81  66  61 S14G21    29.94F HX  83
BOONE *        CLOUDY    79  68  69 S14G31    29.92S HX  81
CHARITON *     PTSUNNY   77  68  73 SE17G28   29.96F
DES MOINES     CLOUDY    78  66  66 SE20      29.94S HX  80
GRINNELL*      CLOUDY    82  65  57 S12G17    29.96F HX  83
KNOXVILLE *    SUNNY     81  64  57 S17G26    29.94F HX  82
MARSHALLTOWN   SUNNY     81  67  62 S16       29.93F HX  83
NEWTON *       SUNNY     82  64  54 S22G28    29.94F HX  84
PELLA *        SUNNY     83  64  52 S16G25    29.96  HX  84
PERRY *        CLOUDY    78  70  77 SE18G24   29.92
$$

IAZ004>006-015-016-023>025-035-036-211800-
   NORTH CENTRAL IOWA

CITY           SKY/WX    TMP DP  RH WIND       PRES   REMARKS
ALGONA *       PTSUNNY   75  70  83 SE13G18   29.90
CLARION *      PTSUNNY   81  72  74 S18G25    29.92S HX  84
ESTHERVILLE      N/A     75  67  76 SE14      29.88F
FORT DODGE *   CLOUDY    78  70  76 S8G21     29.91F HX  80
MASON CITY     PTSUNNY   75  66  73 S10       29.94F
FOREST CITY *  PTSUNNY   73  66  78 S15       29.93F
WEBSTER CITY * CLOUDY    81  70  69 S17G25    29.90S HX  84
IOWA FALLS *     N/A     82  69  64 S18G24    29.94F HX  84
$$

IAZ007>011-017>019-026>030-037>042-050>054-066-211800-
   NORTHEAST IOWA

CITY           SKY/WX    TMP DP  RH WIND       PRES   REMARKS
CEDAR RAPIDS   CLOUDY    84  59  42 S17G25    29.94F HX  84
CHARLES CITY * SUNNY     79  66  65 S10G20    29.94F HX  81
CLINTON *      CLOUDY   N/A N/A N/A NE12      29.99F
DECORAH *      CLOUDY    77  64  65 S10G16    29.96F
DUBUQUE        PTSUNNY   75  65  70 SE9       30.00F
MONTICELLO *   CLOUDY    84  59  42 S10G18    29.95F HX  84
OELWEIN *      CLOUDY    81  63  54 S16G23    29.97F HX  82
WATERLOO       SUNNY     81  64  56 S16       29.94S HX  82
$$

IAZ064-065-067-068-078-211800-
   EAST CENTRAL IOWA

CITY           SKY/WX    TMP DP  RH WIND       PRES   REMARKS
DAVENPORT      CLOUDY    82  54  37 SW16G23   29.97F HX  81
IOWA CITY      CLOUDY    83  60  45 S13       29.95F HX  83
MUSCATINE *    CLOUDY    79  63  57 SE7       29.92F HX  80
QUAD CITIES    CLOUDY    80  57  45 SW12      29.94R HX  80
$$

IAZ062-063-075>077-085>089-095>099-211800-
   SOUTHEAST IOWA

CITY           SKY/WX    TMP DP  RH WIND       PRES   REMARKS
BURLINGTON     CLOUDY    71  67  87 S8        29.99F
FAIRFIELD *    CLOUDY    81  64  57 S13       29.96S HX  82
FORT MADISON * CLOUDY    73  66  78 S6        30.01F
KEOKUK *       CLOUDY    77  64  65 E8        30.01F
OSKALOOSA *      N/A     81  66  59 S16G28    29.96S HX  83
OTTUMWA        CLOUDY    78  67  68 S15       29.96S HX  80
WASHINGTON *   CLOUDY    79  64  61 S12G20    29.94S HX  81
$$

ABBREVIATIONS USED IN REMARKS
   TC - TEMPERATURES IN CELSIUS
  WCI - WIND CHILL INDEX
   HX - HEAT INDEX
  VSB - VISIBILITY
$$





USA.gov is the U.S. government's official web portal to all federal, state and local government web resources and services.